Rolla, MO

9:43 AM CDT on May 22, 2018 (GMT -0500)
Rolla National

Weather History for KVIH - July, 2013

Change the Weather History Date:

Thursday, July 11, 2013

  Actual Average Record
Temperature  
Mean Temperature 73 °F 77 °F  
Max Temperature 82 °F 88 °F 109 °F (1901)
Min Temperature 63 °F 67 °F 56 °F (1999)
Degree Days  
Heating Degree Days 0 0  
Month to date heating degree days 0 0  
Since 1 June heating degree days 17 14  
Since 1 July heating degree days 0 0  
Cooling Degree Days 8 12  
Month to date cooling degree days 97 128  
Year to date cooling degree days 421 470  
Since 1 June cooling degree days 314 363  
Growing Degree Days 23 (Base 50)    
Moisture  
Dew Point 62 °F    
Average Humidity 72    
Maximum Humidity 93    
Minimum Humidity 51    
Precipitation  
Precipitation 0.00 in 0.14 in 1.88 in (2009)
Month to date precipitation 1.28 1.58  
Year to date precipitation 26.37 23.02  
Sea Level Pressure  
Sea Level Pressure 30.02 in    
Wind  
Wind Speed 6 mph (NE)    
Max Wind Speed 13 mph    
Max Gust Speed 24 mph    
Visibility 10 miles    
Events      
T = Trace of Precipitation, MM = Missing Value Source: NWS Daily Summary

Daily Weather History Graph

Daily Weather History Graph

Search for Another Location

Airport or City:

Astronomy

Jul. 11, 2013 Rise Set
Actual Time 5:53 AM CDT 8:31 PM CDT
Civil Twilight 5:22 AM CDT 9:02 PM CDT
Nautical Twilight 4:44 AM CDT 9:40 PM CDT
Astronomical Twilight 4:01 AM CDT 10:23 PM CDT
Moon 9:08 AM CDT (7/11) 10:16 PM CDT (7/11)
Length of Visible Light 15h 39m
Length of Day
14h 37m
Waxing Crescent, 11% of the Moon is Illuminated
Jul 11
Waxing Crescent
Jul 15
First Quarter
Jul 22
Full
Jul 29
Last Quarter
Aug 6
New

Hourly Weather History & Observations

Time (CDT) Temp. Heat Index Dew Point Humidity Pressure Visibility Wind Dir Wind Speed Gust Speed Precip Events Conditions
12:53 AM 70.0 °F - 66.0 °F 87% 29.99 in 10.0 mi NNE 5.8 mph - N/A   Clear
1:53 AM 69.1 °F - 64.9 °F 87% 29.99 in 10.0 mi ENE 6.9 mph - N/A   Clear
2:53 AM 66.9 °F - 64.0 °F 90% 29.99 in 10.0 mi NNE 6.9 mph - N/A   Clear
3:53 AM 66.0 °F - 63.0 °F 90% 30.00 in 10.0 mi NNE 4.6 mph - N/A   Clear
4:53 AM 64.9 °F - 63.0 °F 93% 30.01 in 10.0 mi NNE 4.6 mph - N/A   Clear
5:53 AM 64.0 °F - 62.1 °F 93% 30.01 in 10.0 mi NE 5.8 mph - N/A   Clear
6:53 AM 66.9 °F - 63.0 °F 87% 30.02 in 10.0 mi NNE 5.8 mph - N/A   Clear
7:53 AM 69.1 °F - 63.0 °F 81% 30.03 in 10.0 mi NNE 5.8 mph - N/A   Clear
8:53 AM 73.0 °F - 63.0 °F 71% 30.04 in 10.0 mi ENE 6.9 mph - N/A   Clear
9:53 AM 75.9 °F - 64.0 °F 67% 30.04 in 10.0 mi ENE 8.1 mph - N/A   Clear
10:53 AM 78.1 °F - 64.0 °F 62% 30.04 in 10.0 mi North 10.4 mph 16.1 mph N/A   Clear
11:53 AM 79.0 °F - 64.0 °F 60% 30.05 in 10.0 mi ENE 8.1 mph 24.2 mph N/A   Clear
12:53 PM 80.1 °F 81.7 °F 64.0 °F 58% 30.04 in 10.0 mi NNE 10.4 mph - N/A   Clear
1:53 PM 81.0 °F 81.9 °F 62.1 °F 52% 30.04 in 10.0 mi ENE 4.6 mph - N/A   Clear
2:53 PM 82.0 °F 83.1 °F 63.0 °F 52% 30.04 in 10.0 mi Variable 4.6 mph - N/A   Clear
3:53 PM 81.0 °F 81.7 °F 61.0 °F 50% 30.03 in 10.0 mi Variable 6.9 mph - N/A   Clear
4:53 PM 81.0 °F 81.7 °F 61.0 °F 50% 30.03 in 10.0 mi ENE 9.2 mph - N/A   Clear
5:53 PM 80.1 °F 81.1 °F 61.0 °F 52% 30.01 in 10.0 mi NE 9.2 mph - N/A   Clear
6:53 PM 79.0 °F - 60.1 °F 52% 30.00 in 10.0 mi ENE 9.2 mph - N/A   Clear
7:53 PM 75.0 °F - 61.0 °F 62% 30.00 in 10.0 mi ENE 4.6 mph - N/A   Clear
8:53 PM 71.1 °F - 61.0 °F 70% 30.00 in 10.0 mi ENE 4.6 mph - N/A   Clear
9:53 PM 66.9 °F - 61.0 °F 81% 30.02 in 10.0 mi Calm Calm - N/A   Clear
10:53 PM 64.9 °F - 60.1 °F 84% 30.03 in 10.0 mi Calm Calm - N/A   Clear
11:53 PM 64.9 °F - 60.1 °F 84% 30.04 in 10.0 mi East 3.5 mph - N/A   Clear